Location: *
(53.3650°N, 7.2047°E)
Time: 14:33:17
(UTC+00:00)

Daily predictions for brighter satellites

Satellite Brightness Start Highest point End
(mag) Time Altitude Azimuth Time Altitude Azimuth Time Altitude Azimuth
H-2A R/B 2.1 18:44:54 10° SSE 18:50:08 86° ENE 18:55:14 10° NNW
NOSS 3-4 (A) 3.9 18:43:52 10° NW 18:50:38 75° NE 18:58:10 10° SE
NOSS 3-4 (C) 3.9 18:43:58 10° NW 18:50:45 75° NE 18:58:16 10° SE
ADEOS Rocket 3.6 18:45:46 10° NNE 18:52:25 69° WNW 18:58:21 10° SSW
STARLINK-1143 3.6 18:48:16 10° W 18:52:26 85° S 18:56:36 10° E
Cosmos 1656 Rocket 3.7 18:46:51 10° NNW 18:52:34 75° ENE 18:58:10 10° SE
CZ-2C R/B 3.6 18:51:58 10° NE 18:56:06 24° E 19:00:13 10° SE
STARLINK-1241 3.6 18:53:17 10° W 18:57:26 86° S 19:01:37 10° E
SL-16 R/B 2.8 18:52:33 10° SW 18:58:10 63° NW 19:03:49 10° NNE
STARLINK-1228 2.7 18:55:18 10° W 18:58:13 78° S 19:01:05 10° ESE
Resurs 1-3 4.0 18:57:00 10° SE 19:01:10 45° ENE 19:05:22 10° N
STARLINK-1239 3.6 18:58:15 10° W 19:02:25 87° S 19:06:35 10° E
NOSS 3-3 (A) 4.1 18:57:02 10° SSW 19:02:48 54° SE 19:09:20 10° NE
NOSS 3-3 (C) 4.1 18:57:08 10° SSW 19:02:55 54° SE 19:09:27 10° NE
Cosmos 2251 Rocket 3.5 18:58:30 10° SSW 19:03:50 69° ESE 19:09:13 10° NNE
MetOp-A 4.3 18:58:39 10° SE 19:03:54 59° ENE 19:09:11 10° N
Cosmos 1726 2.3 19:00:17 10° S 19:03:54 50° E 19:07:33 10° NNE
Cosmos 2184 Rocket 4.0 18:58:10 10° N 19:04:32 77° ENE 19:10:46 10° SSE
ARGOS 3.3 19:00:31 10° SSE 19:05:56 85° WSW 19:11:21 10° NNW
ISS -1.0 19:04:53 10° WSW 19:06:00 11° SW 19:07:08 10° SSW
STARLINK-1240 3.6 19:03:15 10° W 19:07:25 87° S 19:11:34 10° E
MONITOR-E 4.2 19:04:58 10° S 19:07:35 64° WSW 19:10:14 10° NNW
STARLINK-1233 2.8 19:05:13 10° W 19:08:23 81° S 19:11:11 13° E
STARLINK-1212 2.8 19:05:41 10° W 19:08:49 81° S 19:11:36 13° E
STARLINK-1105 2.9 19:06:07 10° W 19:09:16 81° S 19:12:03 13° E
SJ-6B 3.0 19:05:13 10° SSE 19:09:21 88° W 19:13:31 10° NNW
STARLINK-1206 2.8 19:06:37 10° W 19:09:45 81° S 19:12:28 13° E
STARLINK-1247 2.8 19:07:04 10° W 19:10:12 80° S 19:12:54 13° E
STARLINK-1227 2.9 19:07:28 10° W 19:10:37 80° S 19:13:20 13° E
STARLINK-1218 2.8 19:07:59 10° W 19:11:06 80° S 19:13:47 13° ESE
STARLINK-1226 2.8 19:08:24 10° W 19:11:31 80° SSW 19:14:12 13° ESE
STARLINK-1254 2.9 19:08:49 10° W 19:11:58 80° S 19:14:38 14° ESE
STARLINK-1216 3.6 19:08:14 10° W 19:12:24 87° S 19:16:24 11° E
STARLINK-1215 2.8 19:09:19 10° W 19:12:26 80° S 19:15:04 14° ESE
STARLINK-67 2.7 19:10:16 10° W 19:12:48 56° SSW 19:14:43 16° ESE
Meteor 2-10 4.2 19:07:28 10° S 19:12:53 66° E 19:18:30 10° NNE
STARLINK-1231 2.8 19:09:46 10° W 19:12:54 80° S 19:15:30 14° ESE
STARLINK-1232 2.8 19:10:40 10° W 19:13:48 79° S 19:16:22 14° ESE
STARLINK-1217 2.8 19:11:07 10° W 19:14:15 79° S 19:16:48 14° ESE
USA 186 2.6 19:11:05 10° S 19:14:22 54° W 19:17:30 10° NNW
STARLINK-1208 2.9 19:11:32 10° W 19:14:40 79° S 19:17:15 14° ESE
STARLINK-1229 2.8 19:12:00 10° W 19:15:08 79° S 19:17:39 15° ESE
STARLINK-1271 2.8 19:12:28 10° W 19:15:36 79° S 19:18:07 15° ESE
STARLINK-1234 2.8 19:12:34 10° W 19:15:37 72° SSW 19:17:59 15° ESE
Cosmos 1980 Rocket 4.3 19:12:18 10° NNW 19:15:37 16° NNE 19:18:57 10° NE
STARLINK-1270 2.8 19:12:56 10° W 19:16:03 79° S 19:18:33 15° ESE
STARLINK-1154 2.8 19:13:21 10° W 19:16:29 78° S 19:18:57 15° ESE
STARLINK-1237 3.6 19:13:12 10° W 19:17:22 87° S 19:21:10 12° E
STARLINK-1197 2.8 19:14:16 10° W 19:17:23 78° S 19:19:50 15° ESE
IRIDIUM 104 4.5 19:12:20 10° N 19:17:35 81° W 19:22:48 10° S
STARLINK-1189 2.8 19:14:43 10° W 19:17:51 78° S 19:20:16 16° ESE
STARLINK-1198 2.8 19:15:10 10° W 19:18:17 78° S 19:20:42 16° ESE
STARLINK-1209 2.8 19:15:27 10° W 19:18:26 69° SSW 19:20:38 17° ESE
STARLINK-1188 2.8 19:15:37 10° W 19:18:45 78° S 19:21:08 16° ESE
Terra 3.9 19:16:51 10° ENE 19:19:01 13° NE 19:21:12 10° NNE
STARLINK-1235 2.9 19:16:15 10° W 19:19:24 72° SSW 19:21:46 16° ESE
STARLINK-1187 2.9 19:16:40 10° W 19:19:50 75° S 19:22:12 16° ESE
STARLINK-1199 2.9 19:17:34 10° W 19:20:43 77° S 19:23:03 17° ESE
Cosmos 1603 3.6 19:15:09 10° SSW 19:20:45 72° ESE 19:26:21 10° NE
STARLINK-1191 2.9 19:18:01 10° W 19:21:10 77° S 19:23:29 17° ESE
FREGAT/IRIS 4.0 19:18:41 10° SSW 19:21:15 36° W 19:23:49 10° NNW
MOS 1 Rocket 4.1 19:16:18 10° NNE 19:21:19 40° E 19:26:25 10° SSE
STARLINK-1210 2.9 19:18:28 10° W 19:21:37 77° S 19:23:55 17° ESE
STARLINK-1221 2.9 19:18:55 10° W 19:22:04 76° S 19:24:21 17° ESE
Cosmos 2058 Rocket 3.8 19:18:15 10° SSE 19:22:17 33° E 19:26:20 10° NNE
STARLINK-1202 3.6 19:18:10 10° W 19:22:19 87° S 19:25:56 14° E
STARLINK-1219 2.9 19:19:22 10° W 19:22:30 76° S 19:24:47 17° ESE
STARLINK-1222 2.8 19:19:49 10° W 19:22:58 76° S 19:25:13 17° ESE
ATLAS 2AS CENTAUR R/B 3.0 19:15:21 10° NW 19:23:07 81° SW 19:29:59 11° SE
Ariane Rocket 4.1 19:18:22 10° S 19:23:13 46° W 19:28:08 10° NNW
USA 234 4.2 19:18:17 10° ENE 19:23:24 24° SE 19:28:30 10° S
STARLINK-1211 2.8 19:20:17 10° W 19:23:26 76° S 19:25:39 18° ESE
STARLINK-1214 2.9 19:20:43 10° W 19:23:51 76° SSW 19:26:05 18° ESE
Cosmos 2237 Rocket 4.5 19:19:16 10° W 19:23:57 26° NW 19:28:40 10° NNE
STARLINK-1245 2.8 19:21:12 10° W 19:24:19 75° SSW 19:26:30 18° ESE
STARLINK-1238 2.9 19:21:37 10° W 19:24:45 75° SSW 19:26:57 18° ESE
STARLINK-1205 2.8 19:22:33 10° W 19:25:41 75° S 19:27:49 19° ESE
Resurs 01 Rocket 1.8 19:21:44 10° SE 19:26:00 55° ENE 19:30:21 10° N
STARLINK-1204 2.8 19:23:01 10° W 19:26:08 75° SSW 19:28:14 19° ESE
STARLINK-1203 3.6 19:22:20 10° W 19:26:34 87° S 19:30:01 15° E
Cosmos 2154 Rocket 4.0 19:20:22 10° N 19:26:46 74° ENE 19:33:06 10° SSE
SeaSat 1 3.4 19:24:30 10° NNE 19:29:19 53° NW 19:34:07 10° SW
Meteor 1-16 Rocket 4.1 19:24:52 10° S 19:30:16 76° E 19:35:52 10° NNE
STARLINK-1246 3.6 19:28:08 10° W 19:32:17 86° S 19:35:30 16° E
SL-4 R/B 2.8 19:30:08 10° SSW 19:32:50 22° SSE 19:33:43 20° SE
Nadezhda 1 Rocket 4.1 19:26:58 10° S 19:33:15 63° E 19:39:32 10° NNE
Cosmos 1140 Rocket 4.2 19:28:51 10° SSE 19:33:17 30° ESE 19:37:45 10° NE
STARLINK-1201 3.0 19:31:10 10° W 19:34:26 73° SSW 19:36:24 22° ESE
Spot 2 Rocket 4.0 19:31:33 15° SE 19:35:23 42° ENE 19:40:11 10° N
Cosmos 1726 Rocket 3.6 19:31:11 10° S 19:35:32 62° E 19:39:58 10° NNE
STARLINK-1224 3.6 19:33:06 10° W 19:37:16 86° S 19:40:17 18° E
Cosmos 1340 Rocket 3.3 19:33:29 10° SSE 19:37:16 39° E 19:41:03 10° NNE
Cosmos 1825 Rocket 4.2 19:33:55 10° NNW 19:38:15 57° W 19:42:31 10° S
Cosmos 1328 4.0 19:34:20 10° NNW 19:38:21 74° W 19:42:21 10° S
ATLAS 5 CENTAUR R/B 2.7 19:35:33 10° SSE 19:38:51 22° ESE 19:42:24 10° ENE
STARLINK-1225 3.6 19:38:06 10° W 19:42:16 85° S 19:45:05 20° E
Cosmos 1703 3.7 19:39:50 10° NNW 19:43:45 62° W 19:47:40 10° S
Meteor 2-17 Rocket 4.5 19:37:43 10° NNW 19:43:55 88° W 19:50:05 10° S
STARLINK-1230 3.6 19:43:05 10° W 19:47:15 84° S 19:49:52 22° E
Cosmos 1943 Rocket 4.5 19:44:00 10° NW 19:48:04 21° WSW 19:52:08 10° SSW
Cosmos 614 Rocket 4.0 19:45:00 10° S 19:50:08 60° ESE 19:55:16 10° NNE
Cosmos 2369 Rocket 4.1 19:45:28 10° NW 19:50:09 27° WSW 19:54:47 10° SSW
Abrixas rocket 3.0 19:49:06 10° WSW 19:51:46 30° S 19:52:19 27° SSE
Cosmos 1300 3.5 19:50:48 25° SE 19:52:04 32° E 19:55:30 10° NNE
STARLINK-1243 3.5 19:48:02 10° W 19:52:12 83° S 19:54:37 24° ESE
SL-24 R/B 3.9 19:47:50 10° NNE 19:52:13 87° WNW 19:56:06 10° SSW
COSMOS 2455 2.8 19:46:18 10° NW 19:52:23 85° NE 19:56:39 21° SE
SPOT 3 Rocket 4.1 19:47:31 10° S 19:52:40 59° WSW 19:57:49 10° NNW
CZ-2C R/B 3.8 19:49:15 10° NNE 19:54:02 87° WNW 19:58:42 10° SSW
Cosmos 921 Rocket 2.8 19:50:19 10° NNW 19:54:32 83° ENE 19:57:12 22° SSE
IGS 5A 4.1 19:53:17 24° ESE 19:55:09 38° ENE 19:59:02 10° N
STARLINK-1236 3.5 19:53:02 10° W 19:57:12 82° S 19:59:25 27° ESE
Cosmos 1953 Rocket 4.4 19:54:15 10° NNW 19:58:36 53° W 20:02:58 10° S
Cosmos 1953 4.2 19:56:08 10° SW 19:59:46 33° WNW 20:03:26 10° N
Cosmos 407 Rocket 3.4 19:56:24 10° S 20:01:28 62° ESE 20:06:33 10° NNE
Cosmos 2228 3.4 19:57:38 10° SSW 20:01:55 67° WNW 20:06:16 10° N
Cosmos 1606 Rocket 4.1 20:00:10 10° SSW 20:04:34 61° WNW 20:09:01 10° N
Cosmos 1908 3.5 20:01:13 10° SSW 20:05:04 68° WNW 20:08:58 10° N
STARLINK-1269 3.5 20:03:00 10° W 20:07:10 79° S 20:09:00 32° ESE
ATLAS CENTAUR R/B 3.1 20:05:54 10° NNW 20:09:12 23° NNE 20:11:25 15° ENE
ERBS 2.4 20:06:00 10° WNW 20:09:23 67° NNE 20:10:29 38° E
Cosmos 1818 3.5 20:03:58 10° SW 20:09:26 85° SE 20:14:55 10° NE
ERS-1 Rocket 3.5 20:07:39 27° ESE 20:09:55 43° ENE 20:14:40 10° N
STARLINK-1200 3.5 20:07:59 10° W 20:12:08 77° SSW 20:13:47 35° ESE
Landsat 7 3.9 20:11:38 29° SE 20:13:57 61° ENE 20:18:41 10° N
Cosmos 220 Rocket 4.1 20:11:55 10° NNW 20:16:12 60° ENE 20:17:45 36° SE
STARLINK-1192 3.5 20:12:57 10° W 20:17:06 75° SSW 20:18:33 39° ESE
SPOT 1/Viking Rocket 3.7 20:14:31 28° SE 20:17:09 60° ENE 20:22:19 10° N
Cosmos 1461 3.8 20:13:07 10° NW 20:17:27 48° SW 20:19:51 25° S
MetOp-B 4.1 20:15:08 20° SSE 20:18:55 84° WSW 20:24:19 10° NNW
Cosmos 1943 3.7 20:13:20 10° SW 20:18:57 63° NW 20:24:39 10° NNE
STARLINK-1244 3.5 20:17:56 10° W 20:22:05 73° SSW 20:23:21 43° ESE
Cosmos 1954 Rocket 4.1 20:21:02 19° S 20:24:39 51° ESE 20:29:42 10° NE
SAR-Lupe-2 3.4 20:21:47 10° NNE 20:25:23 75° ESE 20:26:38 38° S
STARLINK-1138 3.6 20:22:54 10° W 20:27:02 71° SSW 20:28:06 47° SE
CZ-4C R/B 3.5 20:25:31 10° NW 20:31:48 47° NNE 20:37:07 19° E
Cosmos 2151 3.8 20:28:01 10° N 20:31:51 33° ENE 20:32:13 32° E
STARLINK-1143 3.6 20:27:51 10° W 20:31:59 69° SSW 20:32:52 51° SE
STARLINK-1228 4.2 20:30:23 10° W 20:32:28 27° SW 20:32:28 27° SW
Cosmos 1697 Rocket 3.5 20:27:44 10° NNW 20:33:04 39° NE 20:35:27 27° E
Cosmos 1023 Rocket 4.3 20:28:08 10° SSW 20:33:20 83° ESE 20:38:30 10° NNE
Cosmos 1076 Rocket 3.4 20:29:36 10° N 20:33:54 73° ENE 20:35:03 47° SSE
CZ-2C R/B 3.0 20:31:43 10° N 20:36:51 64° WNW 20:41:58 10° SSW
STARLINK-1241 3.6 20:32:52 10° W 20:37:00 67° SSW 20:37:41 55° SE
SPOT 5 2.8 20:36:47 45° ESE 20:37:42 55° ENE 20:41:57 10° N
Cosmos 2341 Rocket 4.4 20:35:13 10° NNW 20:41:30 62° W 20:46:40 16° S
STARLINK-1239 3.6 20:37:50 10° W 20:41:57 64° SSW 20:42:27 58° SSE
Iridium 2 3.5 20:41:59 57° S 20:42:43 86° E 20:46:34 10° N
Cosmos 2058 2.8 20:39:18 10° N 20:43:26 87° ENE 20:44:18 55° SSE
STARLINK-1233 4.3 20:41:05 10° W 20:43:20 30° SW 20:43:20 30° SW
STARLINK-1212 4.3 20:41:33 10° W 20:43:45 30° WSW 20:43:45 30° WSW
STARLINK-1105 4.3 20:42:00 10° W 20:44:12 30° WSW 20:44:12 30° WSW
STARLINK-1206 4.3 20:42:29 10° W 20:44:37 29° WSW 20:44:37 29° WSW
Aureole 1 Rocket 4.3 20:38:23 10° SW 20:45:43 69° WNW 20:51:24 10° NNE
STARLINK-1247 4.4 20:42:57 10° W 20:45:03 29° WSW 20:45:03 29° WSW
STARLINK-1227 4.4 20:43:21 10° W 20:45:29 29° WSW 20:45:29 29° WSW
SL-16 R/B 4.3 20:42:29 10° NNW 20:46:27 19° NNE 20:50:23 10° ENE
STARLINK-1218 4.4 20:43:52 10° W 20:45:55 28° WSW 20:45:55 28° WSW
STARLINK-1240 3.6 20:42:50 10° W 20:46:56 62° SSW 20:47:15 59° S
STARLINK-1226 4.4 20:44:17 10° W 20:46:21 28° WSW 20:46:21 28° WSW
STARLINK-1254 4.4 20:44:42 10° W 20:46:47 28° WSW 20:46:47 28° WSW
STARLINK-1215 4.5 20:45:12 10° W 20:47:13 27° WSW 20:47:13 27° WSW
Cosmos 1763 Rocket 3.4 20:42:53 10° NNW 20:48:08 73° ENE 20:49:35 47° SE
STARLINK-1231 4.5 20:45:40 10° W 20:47:39 27° WSW 20:47:39 27° WSW
STARLINK-1216 3.7 20:47:49 10° W 20:51:55 60° SSW 20:52:02 59° S
Cosmos 1408 3.0 20:48:54 10° N 20:52:05 48° NE 20:52:05 48° NE
USA 32 4.1 20:49:15 10° N 20:54:28 62° E 20:55:38 49° SE
Terra 1.9 20:55:02 52° ESE 20:55:53 62° ENE 21:00:37 10° N
RESURS DK-1 2.7 20:52:01 10° NNW 20:56:07 52° NE 20:56:27 50° ENE
Cosmos-2242 4.0 20:57:02 33° ENE 20:57:02 33° ENE 21:00:15 10° NNE
Cosmos 2322 Rocket 4.3 20:52:28 10° NNW 20:56:23 19° NNE 21:00:16 10° ENE
STARLINK-1237 3.8 20:52:47 10° W 20:56:48 57° SSW 20:56:48 57° SSW
Cosmos 1174 4.0 20:53:23 10° NW 20:57:18 74° SW 20:57:56 61° S
Cosmos 2218 Rocket 4.1 20:52:54 10° NNW 20:59:04 71° W 21:02:26 29° S
Cosmos 192 4.5 20:54:51 10° NNW 20:59:47 69° WSW 21:01:07 47° S
Cosmos 2344 4.4 20:52:14 10° NW 21:00:50 63° NNE 21:08:39 23° ESE
Cosmos 1980 Rocket 3.1 20:56:07 10° NNW 21:01:19 37° NE 21:03:11 29° E
Cosmos 1892 2.7 20:57:44 10° NNW 21:01:38 75° W 21:01:53 71° SW
STARLINK-1202 3.9 20:57:45 10° W 21:01:35 54° SW 21:01:35 54° SW
Cosmos 1455 3.5 21:03:40 30° NE 21:03:40 30° NE 21:05:59 10° NNE
Resurs 01 Rocket 3.8 20:59:24 10° SW 21:02:50 22° W 21:06:18 10° NW
Cosmos 540 Rocket 3.7 20:58:21 10° NNW 21:03:27 53° ENE 21:04:25 46° E
STARLINK-1203 4.1 21:02:09 10° W 21:05:52 49° SW 21:05:52 49° SW
USA 234 3.1 21:00:48 10° ENE 21:07:19 64° SE 21:13:48 10° SW
Okean 3 Rocket 3.5 21:03:44 10° N 21:08:08 64° ENE 21:08:14 64° E
Cosmos 1656 3.6 21:03:28 10° NNW 21:09:13 90° ENE 21:10:37 54° SSE
Iridium 4 Rocket 3.4 21:05:35 10° N 21:09:49 58° W 21:10:42 47° SW
CARTOSAT-1 3.6 21:10:07 63° SSW 21:10:40 72° WSW 21:15:00 10° NNW
STARLINK-1246 4.2 21:07:43 10° W 21:11:09 46° SW 21:11:09 46° SW
SL-4 R/B 3.9 21:08:34 10° WSW 21:09:21 16° WSW 21:09:21 16° WSW
Cosmos 1850 Rocket 4.1 21:13:06 53° E 21:13:06 53° E 21:17:53 10° NNE
ATLAS 2AS CENTAUR R/B 4.4 21:07:16 10° WNW 21:13:04 25° WSW 21:17:26 14° SSW
Cosmos 1140 Rocket 4.2 21:09:48 10° SW 21:14:52 53° WNW 21:19:57 10° NNE
STARLINK-1224 4.4 21:12:42 10° W 21:15:55 41° WSW 21:15:55 41° WSW
Cosmos 2181 Rocket 4.3 21:12:14 17° SSW 21:17:13 65° WNW 21:23:23 10° N
Cosmos 1825 2.7 21:13:24 10° N 21:16:32 54° NNE 21:16:32 54° NNE
Cosmos 1766 Rocket 3.6 21:15:35 10° N 21:20:00 70° ENE 21:20:00 70° ENE
ATLAS 5 CENTAUR R/B 1.7 21:18:33 10° SW 21:22:52 74° NW 21:27:51 10° NE
Cosmos 841 Rocket 3.4 21:18:14 10° NNW 21:23:34 80° ENE 21:24:13 68° SE
Cosmos 2278 4.0 21:18:53 10° NNW 21:24:29 57° NE 21:25:34 49° E
Cosmos 1570 Rocket 3.9 21:23:46 10° NNW 21:29:09 81° WSW 21:29:51 67° S
Cosmos 2082 Rocket 3.9 21:33:29 18° ENE 21:33:29 18° ENE 21:35:36 10° NE
Mayak 0.1 21:28:12 10° NNE 21:30:35 29° NE 21:30:35 29° NE
Cosmos 1812 Rocket 4.4 21:33:49 38° WSW 21:34:53 46° WNW 21:39:06 10° N
COSMOS 2455 4.4 21:32:59 10° WNW 21:37:42 24° WSW 21:39:49 20° SW
ASTEX 1 3.3 21:39:12 72° ENE 21:39:12 72° ENE 21:44:09 10° N
Cosmos 1356 Rocket 3.8 21:43:19 63° N 21:43:19 63° N 21:46:58 10° NNE
Nadezhda 3 Rocket 3.9 21:43:49 61° SSE 21:44:59 80° E 21:51:18 10° NNE
COSMOS 2406 3.2 21:45:30 62° E 21:45:30 62° E 21:50:48 10° NE
Cosmos 1833 Rocket 3.6 21:47:50 35° ENE 21:47:50 35° ENE 21:51:36 10° NE
Cosmos 1535 Rocket 4.3 21:42:00 10° N 21:48:11 73° ENE 21:48:58 65° SE
ATLAS CENTAUR R/B 2.2 21:44:44 10° NW 21:47:36 45° NW 21:47:36 45° NW
ERS-1 Rocket 4.1 21:47:39 31° WSW 21:48:49 35° W 21:53:26 10° NNW
Cosmos 1743 Rocket 4.2 21:58:18 10° N 22:01:52 50° NNE 22:01:52 50° NNE
Thor Agena Rocket 3.8 21:58:07 10° NNE 22:02:20 55° ENE 22:02:20 55° ENE
Cosmos 1408 Rocket 4.0 21:58:48 10° NNW 22:02:35 60° NW 22:02:35 60° NW
Cosmos 2369 3.8 22:00:01 10° NW 22:05:38 64° WSW 22:05:45 64° WSW
Cosmos 2208 Rocket 4.5 22:01:11 10° NW 22:06:09 50° WSW 22:06:09 50° WSW
Cosmos 1741 Rocket 4.3 22:07:29 57° WSW 22:08:18 66° WNW 22:13:38 10° NNE
Cosmos 2151 4.4 22:05:24 10° NNW 22:08:48 31° W 22:08:48 31° W
Meteor 2-10 Rocket 3.9 22:12:36 54° WSW 22:13:15 58° WNW 22:18:38 10° N
Cosmos 1697 Rocket 3.0 22:11:44 10° NW 22:17:11 53° WSW 22:17:11 53° WSW
CZ-4C R/B 2.8 22:14:03 10° NW 22:21:00 82° SW 22:22:18 64° SSE
Cosmos 1934 Rocket 4.0 22:15:29 10° NNW 22:21:44 70° W 22:22:23 65° SW
Helios 1A 4.4 22:26:51 34° NNE 22:26:51 34° NNE 22:29:40 10° N
Meteor 2-3 Rocket 3.9 22:20:53 10° NNW 22:26:34 60° W 22:26:44 60° WSW
SL-16 R/B 2.7 22:26:23 10° NNW 22:31:56 51° NE 22:32:21 50° ENE
Cosmos 2221 3.8 22:33:51 38° NNE 22:33:51 38° NNE 22:36:36 10° NNE
Cosmos 1605 Rocket 3.8 22:26:10 10° NNW 22:32:20 84° W 22:32:34 81° SW
Cosmos 2173 Rocket 4.5 22:26:40 10° N 22:32:30 45° ENE 22:32:48 45° ENE
Terra 3.6 22:33:54 22° W 22:34:02 22° W 22:37:45 10° NW
Cosmos 2360 Rocket 3.5 22:33:01 10° NNW 22:38:04 32° NE 22:39:34 28° ENE
Cosmos 1455 4.4 22:38:33 22° WNW 22:38:33 22° WNW 22:41:14 10° NNW
Cosmos 2322 Rocket 2.7 22:36:17 10° NNW 22:41:50 50° NE 22:42:08 50° ENE
Cosmos 1980 Rocket 2.6 22:40:06 10° NW 22:44:56 53° W 22:44:56 53° W
Cosmos 2333 Rocket 4.3 22:41:39 10° NNW 22:46:01 22° NNE 22:49:56 12° ENE
Nimbus 7 Rocket 4.5 22:43:14 10° NNE 22:48:38 66° ENE 22:48:38 66° ENE
Cosmos 1339 Rocket 4.4 22:49:26 84° SSW 22:49:39 88° W 22:56:08 10° N
ALOS 2 3.7 22:51:07 44° NNW 22:51:07 44° NNW 22:54:09 10° NNW
USA 234 3.3 22:43:57 10° ENE 22:50:29 74° NNW 22:57:00 10° W
Sich 1 4.2 22:51:11 10° N 22:54:11 41° N 22:54:11 41° N
Mayak 0.6 23:04:07 10° N 23:07:09 26° NW 23:07:09 26° NW
ATLAS 5 CENTAUR R/B 3.6 23:04:09 10° WNW 23:08:17 30° NNW 23:12:58 10° NE
Cosmos 2082 Rocket 2.3 23:15:17 71° N 23:15:17 71° N 23:20:29 10° NNE
Cosmos 2344 4.4 23:06:36 10° NW 23:15:50 61° SW 23:18:38 50° S
Cosmos 2061 Rocket 4.1 23:11:50 10° N 23:18:04 65° ENE 23:18:10 65° E
Cosmos 968 Rocket 4.0 23:27:05 55° NNE 23:27:05 55° NNE 23:31:11 10° NNE
Cosmos 1633 Rocket 4.4 23:25:44 10° N 23:28:32 38° N 23:28:32 38° N
Cosmos 1833 Rocket 3.4 23:29:29 44° WNW 23:30:14 46° NW 23:35:42 10° NNE
SL-16 R/B 4.0 23:29:18 22° E 23:31:59 30° NE 23:37:15 10° N
Cosmos 2219 Rocket 3.6 23:32:49 10° NNW 23:37:55 33° NE 23:40:11 25° E
Cosmos 2237 4.4 23:34:31 10° NNW 23:40:00 69° NE 23:40:00 69° NE
Cosmos 1459 Rocket 4.1 23:41:37 10° NNW 23:47:45 63° W 23:47:45 63° W
Cosmos 1607 3.9 23:48:20 82° NE 23:48:20 82° NE 23:54:20 10° NE
COSMOS 2428 3.9 23:45:13 10° NNW 23:50:32 37° NE 23:52:47 27° E
Cosmos 2322 4.3 23:45:48 10° NNW 23:51:26 53° NE 23:52:05 50° ENE
Cosmos 1727 Rocket 4.4 23:51:23 53° W 23:51:44 53° WNW 23:57:56 10° N
MOS 1-B Rocket 4.0 23:46:23 10° NNE 23:52:25 84° WNW 23:52:40 81° WSW
Cosmos 1864 Rocket 4.4 23:46:37 10° N 23:53:01 89° E 23:53:01 89° E
